F4DYW-13 Weather Reports


time (UTC)temp
F
wind
direction
speed
knots
gust
knots
rain 1hr
in
rain 24hr
in
rain mn
in
humidity
%
barometer
mb
20260503183920 65 0 0.0 0.0 0.00 0.00 0.00 63 1018.6
20260503182205 65 0 0.0 0.0 0.00 0.00 0.00 61 1018.6
20260503180449 65 0 0.0 0.0 0.00 0.00 0.00 60 1018.7
20260503174735 66 0 0.0 0.0 0.00 0.00 0.00 60 1018.7
20260503173018 66 0 0.0 0.0 0.00 0.00 0.00 61 1018.7
20260503171303 66 0 0.0 0.0 0.00 0.00 0.00 61 1018.8
20260503140310 66 0 0.0 0.0 0.00 0.00 0.00 67 1020.0
20260503131123 65 0 0.0 0.0 0.00 0.00 0.00 69 1020.6
20260503120221 65 0 0.0 0.0 0.00 0.00 0.00 70 1021.4
20260503100131 65 0 0.0 0.0 0.00 0.00 0.00 71 1021.7
20260503072536 65 0 0.0 0.0 0.00 0.00 0.00 67 1021.4
20260503070821 65 0 0.0 0.0 0.00 0.00 0.00 66 1021.2
20260503054156 65 0 0.0 0.0 0.00 0.00 0.00 64 1021.2
20260503052436 65 0 0.0 0.0 0.00 0.00 0.00 64 1021.0
20260503050719 65 0 0.0 0.0 0.00 0.00 0.00 63 1021.0
20260503044959 65 0 0.0 0.0 0.00 0.00 0.00 63 1021.1
20260503043241 65 0 0.0 0.0 0.00 0.00 0.00 63 1021.0
20260503041524 65 0 0.0 0.0 0.00 0.00 0.00 63 1021.1
20260503035807 65 0 0.0 0.0 0.00 0.00 0.00 63 1021.2
20260503034049 65 0 0.0 0.0 0.00 0.00 0.00 63 1021.3
20260503032332 65 0 0.0 0.0 0.00 0.00 0.00 62 1021.4
20260503030615 65 0 0.0 0.0 0.00 0.00 0.00 62 1021.5
20260503024857 65 0 0.0 0.0 0.00 0.00 0.00 62 1021.6
20260503023137 65 0 0.0 0.0 0.00 0.00 0.00 62 1021.7
20260503021422 65 0 0.0 0.0 0.00 0.00 0.00 62 1021.8
20260503015701 65 0 0.0 0.0 0.00 0.00 0.00 62 1021.8
20260503013944 65 0 0.0 0.0 0.00 0.00 0.00 61 1021.9
20260503012225 65 0 0.0 0.0 0.00 0.00 0.00 61 1021.9
20260503010508 65 0 0.0 0.0 0.00 0.00 0.00 61 1022.1
20260503004750 65 0 0.0 0.0 0.00 0.00 0.00 61 1022.3
20260503003033 65 0 0.0 0.0 0.00 0.00 0.00 61 1022.6
20260503001316 65 0 0.0 0.0 0.00 0.00 0.00 61 1022.8
20260502235556 65 0 0.0 0.0 0.00 0.00 0.00 60 1023.0
20260502233826 65 0 0.0 0.0 0.00 0.00 0.00 60 1023.0
20260502232055 65 0 0.0 0.0 0.00 0.00 0.00 60 1023.0
20260502230325 65 0 0.0 0.0 0.00 0.00 0.00 60 1023.2
20260502224555 65 0 0.0 0.0 0.00 0.00 0.00 59 1023.3
20260502222824 65 0 0.0 0.0 0.00 0.00 0.00 60 1023.3
20260502221403 65 0 0.0 0.0 0.00 0.00 0.00 59 1023.1
20260502215337 65 0 0.0 0.0 0.00 0.00 0.00 58 1023.2
20260502204416 65 0 0.0 0.0 0.00 0.00 0.00 56 1023.2
20260502202700 65 0 0.0 0.0 0.00 0.00 0.00 57 1023.3
20260502200942 65 0 0.0 0.0 0.00 0.00 0.00 56 1023.2
20260502195225 65 0 0.0 0.0 0.00 0.00 0.00 56 1023.3
20260502193509 65 0 0.0 0.0 0.00 0.00 0.00 55 1023.3
20260502191752 66 0 0.0 0.0 0.00 0.00 0.00 55 1023.1
20260502190036 66 0 0.0 0.0 0.00 0.00 0.00 55 1022.8